This is the latest recevied weather packets stored in our database for station/object N5PA. If no packets are shown the sender has not sent any weather packets the latest 10 day(s).
| Time | Temp. | Humidity | Pressure | Rain* | Wind** | Luminosity | Snow |
|---|---|---|---|---|---|---|---|
| 1778076306 | 22.22° C | 46% | 1014.3 hPa | 0 mm | - | 995 W/m² | - |
| 1778076006 | 22.22° C | 48% | 1014.3 hPa | 0 mm | - | 995 W/m² | - |
| 1778075707 | 22.22° C | 48% | 1014.4 hPa | 0 mm | - | 997 W/m² | - |
| 1778075406 | 22.22° C | 48% | 1014.3 hPa | 0 mm | - | 997 W/m² | - |
| 1778075106 | 22.22° C | 48% | 1014.3 hPa | 0 mm | - | 997 W/m² | - |
| 1778074805 | 22.22° C | 49% | 1014.2 hPa | 0 mm | - | 991 W/m² | - |
| 1778074506 | 22.22° C | 49% | 1014.1 hPa | 0 mm | - | 997 W/m² | - |
| 1778074206 | 22.22° C | 48% | 1014.1 hPa | 0 mm | - | 997 W/m² | - |
| 1778073907 | 22.22° C | 47% | 1014.1 hPa | 0 mm | - | 997 W/m² | - |
| 1778073607 | 21.67° C | 48% | 1014.1 hPa | 0 mm | - | 997 W/m² | - |
| 1778073306 | 21.67° C | 47% | 1014 hPa | 0 mm | - | 997 W/m² | - |
| 1778073005 | 21.67° C | 45% | 1014 hPa | 0 mm | - | 997 W/m² | - |
| 1778072705 | 21.67° C | 46% | 1014 hPa | 0 mm | - | 995 W/m² | - |
| 1778072406 | 21.67° C | 46% | 1014 hPa | 0 mm | - | 997 W/m² | - |
| 1778072107 | 21.67° C | 45% | 1013.9 hPa | 0 mm | - | 997 W/m² | - |
| 1778071807 | 21.67° C | 45% | 1014 hPa | 0 mm | - | 997 W/m² | - |
| 1778071506 | 21.67° C | 45% | 1013.9 hPa | 0 mm | - | 997 W/m² | - |
| 1778071206 | 21.67° C | 44% | 1013.8 hPa | 0 mm | - | 997 W/m² | - |
| 1778070906 | 21.67° C | 42% | 1013.7 hPa | 0 mm | - | 997 W/m² | - |
| 1778070605 | 21.67° C | 42% | 1013.6 hPa | 0 mm | - | 997 W/m² | - |
| 1778070306 | 21.67° C | 41% | 1013.4 hPa | 0 mm | - | 997 W/m² | - |
| 1778070006 | 21.67° C | 40% | 1013.1 hPa | 0 mm | - | 998 W/m² | - |
| 1778069707 | 21.11° C | 40% | 1013 hPa | 0 mm | - | 998 W/m² | - |
| 1778069406 | 21.11° C | 41% | 1013 hPa | 0 mm | - | 998 W/m² | - |
| 1778069106 | 21.11° C | 41% | 1012.9 hPa | 0 mm | - | 998 W/m² | - |
* Rain latest hour (hover to see other rain measurements)
** Current wind speed in m/s (hover to see current wind gust speed)